Theta_e
345 345 345 346 347 348 348 348 347 347 349 348 349 349 348 349 348 347 346 345 343 342 343 343 342 342 342 341 341 343 343 343 344 344 342 336 329 326 327 327 327 327 329 331 334 338 342 344 346 347 348 349 349 349 349 349 349 349 348 348 347 346 345 345 345 345 345 345 345 345 345 346 346 346 347 347 347 346 346 346 345 345 343 343 345
347 347 347 347 348 349 348 348 347 349 349 348 349 349 349 349 349 349 347 346 345 344 343 342 342 342 343 342 342 342 343 345 345 344 343 339 335 330 327 327 329 332 335 338 341 343 344 345 347 349 349 349 349 349 349 349 349 348 348 346 345 344 343 343 343 343 344 344 345 345 346 346 345 345 347 347 346 346 346 345 344 341 337 336 335
348 349 349 349 349 348 348 348 347 349 348 347 348 348 348 348 349 349 348 347 346 345 343 341 341 343 343 342 343 345 346 347 346 346 344 341 342 338 331 331 335 338 341 342 343 344 344 347 349 349 349 349 349 349 348 347 346 346 345 344 343 343 342 342 342 342 342 343 344 344 344 342 341 343 347 347 346 345 345 344 338 331 327 325 323
349 349 349 350 350 348 349 348 345 347 347 349 350 347 347 346 347 348 348 348 347 345 344 343 341 341 342 342 344 346 346 345 342 344 344 342 345 344 341 341 341 343 346 346 345 344 344 346 347 348 348 348 347 346 344 343 343 342 343 342 342 342 341 341 340 340 340 341 341 341 341 340 341 344 346 345 344 345 344 341 335 330 328 326 325
350 350 349 347 348 348 348 347 346 347 348 349 349 348 347 346 347 348 349 349 346 345 344 343 343 341 341 343 344 346 346 345 344 346 345 345 345 345 348 347 343 345 348 347 346 343 340 341 341 343 345 345 343 342 340 339 340 340 340 339 339 338 338 338 337 338 338 338 339 339 340 341 341 341 342 341 341 341 341 340 338 337 336 334 334
349 350 349 346 346 347 346 346 346 347 348 348 348 348 347 346 348 348 349 348 345 345 343 343 345 344 343 344 346 348 347 346 346 346 345 345 345 345 347 346 343 345 346 345 345 345 342 342 341 338 338 340 338 337 336 336 336 335 334 334 334 334 334 335 335 335 336 336 336 338 338 338 337 337 337 338 338 339 340 340 340 339 338 337 338
349 349 348 347 347 346 346 346 346 346 347 347 346 347 347 347 348 347 348 346 345 345 345 345 344 345 345 345 347 347 345 346 345 343 344 344 343 343 344 344 346 347 345 343 344 346 346 349 350 342 335 333 333 334 334 333 333 333 333 334 335 335 336 337 338 338 338 337 336 336 335 335 335 337 338 340 340 341 342 343 344 343 341 339 339
349 350 349 349 348 347 347 346 346 347 347 347 346 346 347 347 347 347 347 346 344 343 344 344 342 343 344 343 345 345 345 347 346 344 344 344 343 343 343 344 347 347 346 344 342 343 345 350 352 348 344 337 332 333 334 335 336 338 338 339 339 340 341 341 342 342 342 341 340 339 337 336 338 340 342 343 344 345 346 346 347 348 345 342 341
348 351 351 351 349 349 348 346 346 348 349 349 349 347 346 347 347 347 348 346 345 343 342 343 342 344 345 342 344 345 344 346 345 343 343 343 344 345 342 342 344 344 344 345 342 341 346 351 350 349 352 347 337 334 335 336 338 339 339 340 340 341 342 344 345 346 346 346 345 345 343 342 343 345 345 344 344 344 345 345 346 349 348 346 343
348 350 351 351 351 350 348 347 346 348 349 348 350 349 347 346 345 346 346 345 345 345 344 344 342 344 343 342 344 344 343 345 345 345 344 342 342 344 343 342 344 343 343 345 344 343 346 348 345 345 349 348 342 337 336 338 338 339 340 339 339 340 341 343 345 347 349 349 349 349 348 347 348 348 348 347 345 344 344 343 344 348 349 348 346
347 350 351 350 352 350 347 346 347 349 350 350 350 349 346 345 344 345 346 345 346 345 345 346 344 344 343 342 344 345 344 345 345 345 345 343 342 343 344 344 345 345 343 345 345 344 344 344 341 342 345 346 344 340 339 341 342 342 342 342 342 341 341 342 344 347 349 350 350 350 350 350 350 350 350 349 348 348 346 343 342 347 350 349 349
344 347 348 348 350 348 347 348 348 350 352 351 349 348 346 345 345 347 348 347 348 344 344 346 344 345 345 343 344 346 346 347 345 344 343 342 343 344 343 344 345 344 342 343 344 343 342 341 340 342 344 346 345 342 342 344 346 345 344 344 344 344 344 343 343 345 347 348 348 349 349 350 351 351 351 350 349 349 347 343 342 346 350 350 350
343 344 345 348 350 349 348 349 348 349 350 349 347 346 345 345 347 349 349 348 348 345 343 344 342 344 345 344 345 347 347 348 346 345 344 341 342 343 343 343 344 343 341 341 342 343 341 339 341 343 343 346 346 344 345 345 345 346 345 345 345 345 345 345 344 344 345 347 347 346 346 347 349 350 350 349 348 348 345 342 341 345 348 350 351
344 344 344 347 350 349 348 350 349 347 347 347 346 345 345 347 347 348 349 349 347 343 343 346 345 345 346 345 346 347 347 346 345 345 344 341 342 343 343 343 343 341 342 343 342 341 340 340 342 342 342 344 345 345 346 345 343 345 347 346 345 344 345 345 344 343 343 345 345 344 342 342 342 344 345 344 342 343 341 339 340 343 347 349 350
344 345 345 346 348 348 349 349 347 346 346 346 345 345 348 351 349 346 348 350 347 342 341 347 348 346 346 346 345 346 345 344 343 343 343 341 342 342 342 342 341 341 343 344 343 339 340 341 342 342 343 343 343 344 345 345 347 347 345 344 344 342 342 342 342 340 339 341 342 339 337 335 335 336 338 338 336 336 337 337 338 341 344 346 348
346 348 348 346 347 349 351 349 347 346 346 347 347 347 349 351 350 349 349 349 349 345 342 345 346 346 347 346 345 346 346 344 342 342 342 342 341 342 342 341 340 342 343 343 342 340 339 340 339 341 344 343 343 343 343 349 352 349 345 344 345 341 338 339 339 335 334 338 338 334 332 332 334 334 335 336 335 335 336 336 338 339 342 343 345
346 351 351 346 346 349 350 350 348 345 346 350 351 350 350 350 349 351 351 350 350 348 346 346 344 346 349 347 347 346 346 345 344 343 342 342 341 341 341 342 342 342 343 343 341 339 341 342 340 339 341 343 344 342 343 349 351 347 345 347 348 343 337 335 335 332 331 335 334 330 331 334 336 337 338 339 339 340 340 340 340 339 340 341 341
346 350 351 345 345 347 347 349 349 347 348 351 351 350 351 351 350 352 353 351 350 347 347 348 344 344 347 348 348 347 346 346 345 343 342 343 343 342 342 343 343 341 342 343 341 341 343 344 343 341 340 342 344 342 343 347 347 345 346 348 349 344 335 332 331 330 330 332 330 328 332 336 337 339 340 341 342 343 344 344 344 342 341 341 339
350 350 349 346 345 346 345 347 349 348 348 349 351 351 351 352 351 350 349 349 351 349 347 349 347 346 347 346 345 346 347 348 346 344 344 345 344 343 343 342 342 342 342 343 343 343 342 342 344 344 343 344 343 343 343 344 344 344 345 347 349 345 334 330 330 329 330 331 330 328 331 334 336 339 340 342 342 343 344 345 346 346 345 343 341
351 349 346 346 346 345 344 345 348 350 349 350 353 353 352 353 350 346 345 345 349 351 349 349 349 349 348 346 347 346 346 348 348 347 348 347 345 344 343 342 342 341 341 343 343 343 342 341 343 344 345 345 344 344 343 342 342 342 343 346 348 343 335 330 329 329 328 330 331 330 330 332 335 338 338 339 340 341 342 344 346 347 347 347 345
349 346 345 346 345 345 345 344 347 349 350 351 353 352 352 351 346 343 345 345 346 348 350 352 351 350 349 348 348 347 346 347 346 347 349 348 346 344 345 344 344 342 341 342 342 342 342 342 343 344 345 346 346 346 344 343 343 342 343 345 344 342 340 334 329 328 328 328 331 332 332 332 333 334 333 334 336 336 338 340 343 347 348 349 348
347 346 346 346 345 345 345 345 348 350 351 352 352 351 350 347 346 345 345 346 344 344 349 352 352 352 350 347 344 346 348 348 346 347 347 346 347 347 346 346 344 344 344 344 343 344 344 344 344 345 345 346 347 347 344 343 343 342 342 343 343 344 345 341 331 327 327 327 328 329 329 329 328 328 328 328 329 330 331 333 337 343 347 348 349
349 347 345 346 345 345 346 347 351 351 351 352 353 352 351 350 352 350 346 345 345 344 346 349 350 350 350 347 346 348 350 348 346 348 347 347 347 346 346 346 345 346 347 346 346 346 346 346 346 346 347 348 346 346 344 340 340 341 342 344 345 345 347 344 334 326 327 327 326 326 325 325 325 325 325 325 325 326 326 328 331 336 341 345 348
352 350 348 349 346 344 347 349 351 351 348 349 351 352 353 353 354 353 349 346 346 345 345 348 350 350 350 350 350 350 349 348 346 346 347 349 349 346 346 347 346 346 347 347 347 347 346 347 347 347 348 348 346 347 345 341 340 342 344 346 348 348 348 346 335 328 331 333 332 331 330 327 325 324 325 324 324 325 325 326 330 333 335 339 345
353 351 351 353 348 344 346 348 350 350 347 347 348 351 353 353 352 352 351 349 348 346 346 350 351 349 350 351 351 349 347 348 346 342 345 349 349 348 348 347 346 345 347 348 346 345 346 348 347 347 347 347 348 348 346 343 342 344 347 350 350 349 348 346 338 333 338 340 338 338 338 335 330 326 324 325 325 325 326 328 331 333 335 336 341
351 352 352 353 350 346 346 346 347 346 345 346 345 347 349 349 348 348 350 352 350 347 348 352 352 350 351 351 351 350 347 348 348 345 345 348 349 350 349 348 347 345 345 346 345 345 347 348 346 345 346 347 349 349 347 346 347 347 349 351 350 346 346 347 342 339 343 343 340 340 340 340 338 332 326 325 326 326 327 329 331 333 335 338 339
352 352 351 352 352 351 347 345 346 343 344 345 344 346 346 345 346 345 347 351 350 348 350 353 354 353 353 351 351 351 349 350 351 349 349 349 349 350 350 350 348 346 346 347 347 346 347 346 345 346 346 347 350 350 347 347 349 349 348 349 348 344 346 348 344 342 344 343 341 340 340 341 340 335 330 326 326 327 329 331 332 333 334 338 340
352 351 351 352 354 353 348 346 345 343 344 345 346 349 347 345 346 344 345 350 350 350 350 352 352 352 353 352 350 349 351 352 351 350 350 350 349 348 350 351 350 349 349 349 349 348 347 346 345 346 346 347 349 349 349 349 348 348 348 349 348 345 346 346 343 345 346 343 341 340 341 341 339 338 335 330 327 328 331 332 333 334 334 337 340
353 350 350 352 352 351 350 352 350 346 345 344 345 348 346 346 348 345 346 351 352 350 348 349 353 354 352 352 352 351 352 352 351 350 351 352 350 347 350 353 352 350 348 348 349 349 349 348 345 345 346 348 349 349 350 350 347 346 347 349 348 346 346 344 343 346 345 342 340 340 341 340 338 340 340 335 333 333 333 333 334 336 335 337 340
352 350 350 350 349 348 349 354 354 348 345 344 344 346 345 346 347 345 346 350 350 348 345 346 353 355 353 353 354 354 354 353 351 350 352 354 351 348 350 353 352 349 347 348 349 348 347 347 346 346 347 348 350 350 350 351 349 346 346 348 347 347 346 344 342 344 342 340 339 340 341 339 338 342 341 338 338 339 336 335 336 337 337 337 339
351 351 351 351 350 347 346 350 352 347 345 344 343 344 345 345 345 346 347 347 347 346 344 346 351 353 353 354 353 352 354 354 353 352 352 354 353 350 352 353 351 349 349 350 351 349 347 346 345 346 348 348 350 350 350 351 349 347 347 348 347 346 345 343 343 342 340 339 339 340 339 339 340 341 341 341 342 342 340 338 337 338 338 337 338
351 351 351 352 353 351 348 351 352 349 349 349 347 346 345 344 346 350 351 349 348 346 346 350 354 354 355 355 352 352 353 354 354 354 353 354 354 352 352 353 352 352 353 353 353 349 345 345 345 345 348 349 349 350 350 350 349 348 348 347 346 346 345 344 343 340 339 340 340 339 340 341 342 341 343 345 345 345 344 342 340 339 339 338 337
352 352 352 352 354 354 353 354 353 350 352 353 351 349 347 345 347 351 352 350 348 345 345 350 354 354 357 356 350 349 350 349 351 354 354 353 352 351 351 353 354 354 354 354 354 350 344 347 350 348 348 349 350 350 350 349 349 349 348 347 346 346 345 344 344 342 341 341 339 339 342 343 342 343 345 346 346 347 348 346 344 342 340 339 337
352 353 353 352 353 354 354 354 353 351 353 353 351 350 350 349 349 351 352 350 348 345 343 346 348 349 352 352 347 346 349 350 351 353 353 352 351 351 352 353 354 354 354 355 354 350 348 351 353 351 350 350 350 349 349 348 348 348 348 347 346 346 345 346 346 345 343 341 339 342 344 343 344 346 347 347 346 348 349 349 348 345 341 339 337
352 353 353 353 354 353 353 354 353 353 353 352 351 352 353 352 352 353 353 354 353 350 345 346 347 348 349 350 350 351 353 354 355 356 354 352 352 352 353 354 355 355 354 355 354 354 354 354 351 349 348 347 346 346 348 348 348 347 347 348 347 346 347 347 347 347 344 342 343 344 343 343 346 348 347 347 347 348 349 350 350 349 344 339 337
352 352 352 353 353 354 353 353 353 353 353 351 349 351 353 353 352 352 352 353 355 354 352 352 354 354 352 352 354 355 355 355 356 357 355 352 352 353 354 354 354 355 355 356 356 355 355 354 351 350 349 347 347 348 348 348 347 346 346 346 346 346 346 346 346 347 345 345 346 345 343 346 347 347 348 348 349 350 349 350 350 351 348 343 340
350 350 350 350 352 354 354 352 351 352 351 349 347 348 352 353 352 352 353 353 354 354 354 353 355 355 352 353 354 354 354 355 354 355 354 353 353 353 353 354 354 355 355 354 353 352 353 354 353 352 351 349 349 348 347 347 346 345 345 345 345 345 344 344 346 346 346 347 346 343 344 348 348 348 349 350 351 351 350 350 351 351 350 347 343
348 348 348 349 351 353 353 351 351 351 350 348 347 348 352 353 352 352 353 354 355 355 353 351 352 353 351 351 351 350 353 355 354 354 354 353 353 352 352 353 353 353 353 352 352 352 353 354 353 352 352 350 349 348 346 346 346 345 346 344 343 343 344 345 345 344 345 346 344 343 347 351 349 349 350 352 352 352 351 350 351 351 350 348 346
348 347 346 347 349 352 353 351 349 351 352 351 349 348 349 352 354 355 354 355 355 355 354 353 353 354 353 353 352 350 353 354 353 353 353 353 353 352 353 354 354 355 354 353 353 352 351 350 348 348 350 349 347 346 345 346 346 346 344 342 343 344 345 345 343 341 342 344 344 346 352 352 348 348 350 351 353 353 351 351 350 350 350 349 348
345 346 346 346 346 349 353 353 350 351 354 354 352 350 349 351 354 355 354 354 355 354 354 355 354 353 353 353 353 352 352 353 352 352 353 353 352 352 352 353 354 352 349 346 345 343 341 340 339 341 345 346 346 346 346 346 346 345 344 345 347 347 345 343 342 342 344 345 346 349 352 349 347 348 349 351 353 353 351 351 351 350 351 350 349
344 345 345 345 345 346 351 353 352 352 354 354 353 351 350 351 352 354 355 355 355 353 353 354 354 354 354 353 352 351 351 351 351 352 352 353 351 351 351 349 346 343 339 338 337 336 338 340 342 344 346 347 347 347 346 347 346 346 345 346 346 345 345 344 343 345 345 346 348 348 346 346 348 350 351 351 353 353 351 351 351 350 350 351 351
345 344 345 345 345 345 346 349 350 351 351 351 351 350 350 352 352 354 354 353 352 351 352 354 354 353 353 352 352 351 350 350 350 351 352 352 351 351 349 346 341 339 339 339 339 341 343 346 348 350 350 350 348 347 349 350 349 347 346 347 347 347 348 347 345 344 345 346 346 344 343 348 351 352 352 352 352 353 352 351 350 350 350 351 352
345 345 345 346 346 346 345 345 347 349 349 349 349 348 349 352 353 354 354 353 352 352 352 352 353 353 352 351 351 350 350 351 351 351 351 351 350 350 348 345 342 342 343 344 344 344 345 346 347 349 349 348 347 348 350 351 349 347 347 348 349 350 351 351 349 346 344 345 345 344 346 349 352 352 352 352 352 352 352 350 350 351 351 351 352
345 346 346 347 349 349 347 346 347 347 348 349 349 348 348 349 350 351 352 353 352 351 351 350 351 352 352 352 351 349 349 350 351 353 353 352 351 350 348 345 344 345 346 346 346 345 345 345 345 345 346 348 349 349 350 349 348 348 349 349 349 350 351 351 350 347 346 346 347 350 352 351 352 352 353 352 352 352 351 351 350 350 351 352 353
346 347 347 347 350 350 349 348 346 345 347 348 348 347 347 347 348 348 349 350 350 349 349 351 351 350 351 351 350 349 348 348 350 353 353 352 351 349 346 344 346 347 348 348 348 347 347 348 348 348 350 351 351 351 350 350 348 348 349 349 349 349 349 349 349 348 348 350 352 354 354 352 352 353 353 354 354 353 353 352 351 352 353 354 354
345 347 347 347 349 350 349 349 346 343 346 350 350 348 347 347 348 348 349 349 349 348 347 348 350 350 349 349 349 349 349 348 349 352 353 352 351 347 344 345 347 348 348 349 349 350 350 350 350 351 351 352 353 353 351 350 350 350 350 349 348 348 349 349 349 350 352 353 354 353 353 353 354 354 354 355 353 353 352 351 352 354 354 354 354
344 345 346 347 348 349 349 350 348 344 344 348 351 350 349 349 349 349 350 350 350 348 347 347 349 350 349 349 348 348 348 348 349 351 353 353 351 348 347 347 347 349 351 349 348 348 348 349 351 351 352 353 353 352 351 350 349 347 346 346 347 349 350 351 352 352 353 354 354 354 354 354 354 354 353 353 351 350 349 349 353 356 355 354 354
346 345 346 346 346 347 348 349 348 345 343 346 351 352 351 350 350 350 351 351 350 348 347 348 349 350 350 349 348 345 343 346 348 349 350 354 354 351 348 347 346 348 350 349 348 348 349 349 350 351 352 352 351 350 347 342 339 341 344 347 350 352 353 353 353 353 353 353 353 354 355 354 354 353 352 350 350 349 347 350 354 355 354 355 355
348 348 348 348 348 347 347 348 347 346 346 347 349 350 352 351 351 351 352 351 349 349 349 350 350 349 349 349 348 344 342 345 347 346 347 351 352 350 348 347 346 346 348 348 349 349 351 350 350 350 351 348 344 339 333 330 335 344 349 350 352 353 354 354 354 354 352 352 353 355 355 354 352 352 351 350 351 350 349 351 352 352 353 354 355
350 350 350 351 350 347 347 347 347 348 348 347 346 348 350 349 349 350 350 350 349 349 350 350 350 349 348 350 350 348 346 347 347 346 347 348 349 349 348 348 348 348 348 348 348 350 350 349 348 347 342 334 328 324 321 327 337 344 347 350 351 351 352 352 352 349 346 349 353 353 351 351 351 352 352 352 350 350 351 351 350 350 351 352 353
350 351 351 351 350 348 347 347 347 348 348 346 345 347 348 347 348 349 350 350 350 350 350 351 350 350 350 350 350 350 350 350 349 348 348 349 349 349 349 348 348 348 348 348 348 347 345 342 341 338 330 323 321 320 321 328 336 341 346 350 349 349 350 348 345 343 339 339 340 342 344 346 347 348 349 350 350 349 349 350 349 348 349 351 353
Wind_Speed
12 12 12 11 11 10 10 10 9 9 9 8 8 7 8 9 10 11 9 8 7 5 7 7 7 7 7 9 9 9 7 8 9 3 5 10 12 11 10 10 9 10 10 10 10 10 10 10 11 11 12 12 12 12 12 12 12 12 12 12 12 11 11 11 11 11 11 11 10 10 9 9 10 10 11 12 13 14 14 14 15 15 17 19 20
10 10 10 10 10 10 10 9 7 6 5 5 7 7 8 8 8 10 9 8 6 6 6 5 7 7 6 7 7 8 9 8 7 5 5 9 13 13 12 11 11 12 12 12 11 10 11 11 12 12 13 14 14 14 14 14 13 13 13 13 12 12 12 11 11 11 10 10 10 9 9 10 10 10 11 12 13 14 14 15 15 16 16 18 19
10 10 9 10 10 9 8 6 6 6 5 6 7 8 9 7 7 9 10 9 7 6 8 6 6 7 7 7 6 6 7 7 7 7 6 7 12 14 13 13 13 14 15 15 14 12 12 12 13 14 15 15 16 15 14 14 14 14 14 13 13 12 12 12 11 11 10 10 10 10 10 10 10 10 11 12 12 13 14 15 16 17 17 17 18
11 8 9 10 9 9 7 5 7 7 7 9 9 8 9 8 8 10 12 10 6 6 8 6 5 6 7 7 6 6 6 8 8 4 6 8 11 13 14 14 13 14 15 16 16 15 13 13 14 15 16 16 15 14 14 14 15 14 13 13 12 12 12 12 11 11 11 11 11 10 10 11 11 10 10 11 12 13 14 15 16 16 17 18 20
11 8 8 9 9 8 7 6 7 9 9 10 10 8 8 8 9 10 11 9 5 6 7 5 6 7 7 7 6 7 7 8 6 5 8 10 8 9 12 13 12 12 13 14 16 17 16 16 16 15 15 15 14 13 14 14 14 13 13 13 13 13 13 12 12 12 12 12 11 11 11 11 11 11 10 11 12 12 13 14 15 16 18 19 21
12 9 7 7 8 6 7 7 7 9 9 9 9 10 10 9 9 9 10 10 6 6 8 5 6 7 7 6 5 5 6 7 5 5 7 5 5 7 8 9 12 14 13 14 15 16 18 18 18 18 17 15 14 13 13 13 13 13 14 14 14 14 14 14 14 14 13 13 12 12 12 12 12 12 12 13 13 13 14 14 16 17 19 21 23
12 10 8 7 7 6 7 7 8 9 9 9 10 11 11 10 9 9 10 10 6 5 6 4 2 6 9 7 7 6 6 6 5 7 7 3 6 9 8 8 12 15 14 15 15 14 15 16 17 20 19 16 14 14 14 14 14 15 16 16 17 17 17 16 16 16 15 15 14 13 13 13 13 13 14 14 15 15 15 16 17 19 21 23 25
12 11 9 7 5 5 6 6 8 9 9 11 11 10 10 10 10 10 9 10 10 6 6 6 4 6 7 6 8 8 5 6 5 6 5 2 5 8 10 11 11 11 10 13 16 14 13 14 14 17 18 18 16 15 15 15 16 16 17 18 18 18 18 18 18 18 18 17 17 16 15 14 14 15 15 16 16 16 17 17 18 20 23 25 27
14 13 10 7 3 4 5 5 7 7 8 10 10 8 9 10 10 11 10 10 10 6 4 4 5 5 6 5 7 5 5 7 5 4 4 4 4 5 8 11 11 11 8 7 14 15 12 11 12 13 14 16 17 17 17 17 18 18 19 19 19 19 19 19 19 19 19 19 18 18 16 16 15 16 16 17 17 17 18 19 20 20 23 26 29
15 14 12 9 5 5 5 6 6 6 7 8 8 7 8 9 9 10 12 12 11 6 4 3 3 6 6 5 5 5 5 6 6 6 7 7 8 6 7 11 11 12 9 6 11 14 12 11 11 11 12 13 16 18 19 19 20 20 20 20 20 20 20 19 19 19 19 19 19 19 18 17 17 17 18 18 19 19 20 21 21 21 23 27 30
14 13 12 10 7 6 5 6 7 7 7 7 7 6 6 7 8 10 12 12 11 7 5 5 4 8 8 5 7 6 5 6 7 7 5 5 8 8 7 12 10 8 8 6 7 10 11 11 11 11 11 11 14 17 19 20 20 21 21 21 21 20 20 20 19 19 19 19 19 18 18 18 18 18 18 19 19 20 21 22 23 22 24 27 30
11 11 11 9 7 6 5 6 7 7 7 6 7 5 5 8 9 11 11 10 8 4 5 5 4 7 9 7 7 6 5 6 5 6 5 5 10 10 7 8 6 4 6 4 3 7 10 9 10 11 10 9 11 14 16 18 19 20 21 21 22 21 21 20 20 19 19 19 18 18 18 17 17 18 18 19 20 20 21 23 23 23 24 27 30
8 8 10 9 8 7 6 6 5 6 5 5 7 4 5 8 8 8 8 8 6 3 3 5 6 7 8 7 7 7 6 4 3 4 5 5 9 9 6 7 4 3 5 7 6 5 9 9 8 9 10 9 10 12 14 15 17 18 20 21 22 23 22 21 21 20 20 19 19 18 18 17 17 17 18 19 19 20 21 22 24 24 24 27 30
7 7 7 8 8 7 6 6 5 5 4 4 6 5 5 6 6 7 7 7 4 2 5 6 6 7 8 9 7 6 4 2 3 4 4 4 4 4 5 7 4 4 6 9 8 6 9 10 8 9 10 9 11 12 13 14 16 17 18 21 23 23 23 22 22 21 21 20 19 18 18 17 17 17 17 18 19 20 20 22 23 24 25 27 30
7 7 7 7 7 6 6 5 5 5 5 4 5 6 6 5 6 8 7 7 5 2 5 5 8 8 7 9 9 7 5 2 4 7 8 7 5 4 5 4 3 7 7 5 6 9 11 10 9 10 10 9 10 10 11 14 16 17 18 21 23 24 23 22 22 22 21 20 19 18 17 17 17 17 18 18 19 20 20 21 23 24 25 27 29
7 6 5 5 7 7 6 5 4 5 6 5 6 6 5 5 6 6 5 7 7 4 3 4 8 8 6 9 9 7 6 4 5 10 10 7 5 6 6 3 4 7 6 2 5 9 10 9 9 10 10 12 11 11 13 14 15 17 18 21 24 26 24 21 21 22 21 20 19 16 15 16 17 17 18 19 20 21 22 22 22 24 25 26 29
7 6 4 5 6 6 6 5 4 5 7 6 7 6 4 5 4 4 4 6 7 7 5 3 4 5 6 9 8 6 6 4 3 7 8 7 4 3 3 3 3 2 2 1 4 9 11 11 10 9 9 13 15 14 13 10 11 14 16 21 25 27 25 21 20 21 20 20 18 15 15 15 16 17 18 19 20 21 22 23 23 24 24 26 28
6 6 5 5 5 5 5 5 5 5 5 5 6 5 2 3 3 3 4 3 5 9 8 4 3 5 6 7 7 5 5 3 3 5 5 4 4 2 1 2 0 3 3 2 3 7 9 10 11 11 10 12 15 15 12 10 10 13 17 21 25 28 25 20 19 20 20 20 17 14 15 16 16 17 18 19 20 22 23 23 24 24 25 26 27
6 5 5 5 5 5 5 4 5 5 4 5 5 3 3 2 2 3 2 2 5 8 8 6 5 5 4 4 5 3 3 2 4 5 3 2 3 3 1 1 1 4 6 3 2 4 7 7 7 11 12 12 14 15 12 11 12 14 18 21 24 27 24 19 19 19 19 20 18 16 15 17 18 18 19 20 21 22 23 23 24 24 25 26 27
6 5 4 5 4 4 4 4 5 4 4 5 3 3 3 1 1 3 2 4 5 6 7 6 6 5 4 6 5 2 1 1 2 3 3 3 4 5 1 1 2 1 2 1 2 5 7 4 4 7 10 13 16 16 13 12 12 15 18 20 24 25 21 19 20 20 20 20 19 18 17 18 19 20 20 21 22 23 24 24 24 24 24 25 27
6 5 4 4 4 4 4 4 4 3 4 4 1 1 2 2 2 3 3 4 5 5 5 4 5 4 2 5 6 3 3 2 1 2 2 2 3 4 3 4 3 1 2 3 1 5 5 5 5 4 5 11 15 16 14 13 13 14 16 19 23 23 19 19 20 20 21 21 20 20 19 20 20 21 21 22 23 23 24 24 24 24 24 24 26
6 5 4 4 4 4 4 4 4 3 3 5 2 1 2 2 3 2 3 4 3 6 7 2 2 4 3 1 3 3 3 2 1 2 3 1 2 3 3 4 4 2 1 2 3 5 5 6 7 5 5 10 11 13 15 14 13 14 14 17 21 21 19 19 19 19 21 21 21 21 21 21 21 22 22 23 23 23 24 24 24 23 23 23 24
5 4 4 4 4 4 4 4 5 4 4 6 5 4 3 3 4 3 2 3 3 5 6 3 2 4 3 1 2 2 3 2 1 3 4 4 4 4 2 2 3 3 4 4 2 3 5 5 5 5 7 8 9 14 18 15 13 15 15 17 20 21 20 20 19 19 20 21 21 22 22 23 23 23 23 23 23 23 24 24 24 23 23 23 23
5 4 4 5 5 5 6 5 6 6 6 7 7 7 7 6 5 4 3 3 3 3 4 4 3 2 1 2 3 4 4 2 4 6 4 3 4 4 2 1 4 5 5 6 5 4 5 5 6 7 7 9 11 15 19 16 13 16 17 17 19 21 21 20 20 20 20 21 23 24 25 26 26 26 25 24 23 23 23 24 24 24 23 22 22
7 5 5 6 5 5 7 6 7 8 7 7 7 7 9 8 5 4 4 3 3 3 3 4 4 3 2 2 5 3 3 1 3 7 4 3 4 3 2 2 5 6 6 9 9 7 6 7 9 9 9 12 14 15 16 15 14 15 16 17 20 21 20 20 21 20 20 22 25 25 26 28 29 29 27 25 24 23 23 23 23 24 23 21 21
9 6 6 7 6 6 7 6 6 8 6 6 6 7 10 9 6 6 6 4 3 4 3 2 2 2 2 2 3 3 1 1 3 4 3 4 4 2 1 1 4 6 7 10 9 6 7 9 9 10 10 11 14 14 12 13 15 16 16 17 21 22 19 19 21 19 19 22 25 26 26 27 30 31 29 26 25 24 23 23 23 23 22 21 20
9 6 5 7 6 5 5 5 5 7 6 6 6 6 8 9 7 7 7 4 3 4 4 3 3 3 3 3 2 0 2 2 3 4 2 1 1 1 1 2 4 6 6 7 7 7 9 10 9 10 10 11 14 14 12 12 12 15 17 18 22 21 17 18 21 19 18 22 25 26 25 25 29 32 30 27 25 24 24 24 23 22 21 21 20
8 6 6 7 7 5 5 5 4 5 5 6 6 5 6 7 6 6 6 4 3 4 5 6 6 4 2 2 3 3 3 2 2 4 2 1 1 1 3 4 4 5 5 6 8 7 8 9 10 11 10 12 16 15 14 14 11 12 15 17 21 19 15 18 19 18 19 21 25 26 25 25 28 31 31 28 25 24 24 24 23 21 21 20 20
7 8 8 8 8 6 6 6 4 4 5 6 7 6 5 6 5 4 5 5 5 6 6 6 4 3 2 3 2 3 4 3 4 5 3 0 3 5 5 4 3 5 6 7 8 7 8 8 9 13 13 14 17 15 14 16 15 13 14 17 21 18 16 17 18 17 18 21 26 26 24 25 27 29 31 28 26 25 24 23 22 21 20 18 18
6 7 7 8 8 6 7 8 6 5 6 6 7 7 6 6 5 4 5 6 6 6 6 6 5 3 3 4 4 4 3 4 5 6 3 1 4 6 5 4 4 5 5 5 7 8 8 7 6 10 14 16 18 16 14 14 16 16 15 18 20 19 17 18 19 19 19 22 25 24 23 25 26 27 28 28 28 28 25 22 21 20 19 17 17
8 7 7 7 6 6 7 7 7 6 6 6 7 6 6 6 6 5 6 6 6 6 6 5 4 5 6 6 6 6 5 4 4 5 4 2 4 5 4 4 4 5 4 5 7 7 7 8 7 6 9 14 16 16 13 13 15 15 14 17 19 18 18 18 19 20 19 21 22 21 23 25 24 25 26 27 29 29 25 22 20 19 18 16 16
8 8 8 7 6 7 6 6 7 6 6 5 5 5 6 6 7 6 7 7 5 5 5 5 5 6 7 6 6 6 7 7 6 5 5 5 5 5 5 5 5 5 5 6 7 8 7 8 8 6 7 11 13 14 13 13 13 13 15 17 18 18 18 18 19 19 19 20 20 21 23 23 22 23 24 25 28 28 25 23 20 19 18 16 15
9 9 9 8 8 8 6 7 8 6 6 6 7 6 5 6 7 7 8 8 6 5 6 7 7 7 7 7 7 7 7 6 5 5 6 6 6 7 6 6 6 6 6 7 8 9 8 7 9 9 8 9 11 12 13 13 13 14 16 18 17 18 18 18 19 18 19 20 19 20 21 21 22 21 20 24 28 27 25 23 21 19 17 15 14
10 10 10 9 10 10 8 8 9 7 7 8 8 8 7 7 7 7 8 8 6 7 7 7 7 8 8 8 7 5 4 4 4 4 6 6 6 7 6 5 5 6 7 8 9 10 10 9 9 10 9 9 11 12 11 11 13 15 17 17 17 18 18 18 18 18 19 20 18 19 21 21 21 19 19 25 27 25 24 23 22 20 18 15 14
11 11 10 9 10 11 9 9 10 9 8 9 9 9 9 9 7 7 8 8 8 8 8 7 6 6 7 7 6 5 4 6 6 4 5 5 5 6 5 3 5 7 8 8 9 10 11 12 12 11 11 11 11 10 10 11 14 16 16 16 18 19 18 17 18 18 18 18 18 20 21 20 20 19 21 26 26 22 21 21 20 20 19 17 14
11 12 12 11 11 12 12 12 12 12 11 11 10 9 10 10 9 8 9 9 9 8 7 7 6 6 7 6 6 5 6 8 7 6 6 5 5 6 5 4 7 7 6 7 8 9 11 13 13 14 14 13 12 12 12 13 15 16 16 16 18 20 19 19 20 19 19 18 18 21 21 19 19 21 23 26 24 20 18 18 18 18 19 19 16
12 13 13 12 12 14 15 14 13 13 13 13 11 10 10 10 10 9 9 10 10 9 9 9 8 8 8 7 7 7 7 7 6 6 7 6 6 6 4 5 8 7 6 7 8 9 11 13 14 15 15 14 14 13 13 14 15 16 15 16 18 20 20 21 21 21 20 19 20 22 21 20 20 22 24 25 22 17 16 15 15 16 17 19 18
13 13 13 13 13 15 16 15 14 14 14 14 13 12 11 11 11 10 9 9 10 11 11 9 9 9 9 8 9 8 8 7 6 6 8 8 6 5 6 7 8 8 8 8 8 9 10 12 13 14 14 14 14 14 14 14 16 17 17 19 20 19 19 20 22 24 24 23 25 25 21 19 21 24 26 23 16 14 14 13 13 14 15 18 19
14 13 13 14 15 15 16 15 14 14 14 14 14 13 12 12 12 12 11 10 11 11 10 9 9 10 9 10 9 7 8 9 8 7 7 8 6 5 7 8 7 8 9 7 8 9 11 12 13 13 13 13 14 15 15 15 16 16 18 21 21 18 17 20 24 28 28 27 28 26 20 20 26 27 25 18 12 12 14 13 13 13 14 18 20
14 14 14 14 15 15 16 15 14 14 14 15 14 14 14 13 12 13 12 11 11 12 10 10 11 10 10 11 10 9 10 11 9 8 8 8 8 8 8 8 8 10 11 10 11 13 14 15 15 15 15 14 14 15 15 15 16 17 18 20 20 18 20 24 27 29 28 28 27 25 24 27 29 26 21 16 12 12 14 13 12 14 17 19 20
14 14 14 15 15 15 16 16 16 14 14 16 15 14 14 14 13 12 12 13 13 12 11 11 11 10 11 12 10 10 12 12 12 11 10 11 12 12 12 14 14 14 14 14 14 14 14 15 15 15 15 15 15 15 16 16 16 17 18 19 20 22 25 27 28 27 27 27 27 28 29 28 25 21 20 18 14 14 16 15 13 17 20 20 21
17 16 15 16 16 15 15 16 17 15 14 15 16 14 13 14 13 11 12 14 14 13 11 11 12 13 13 11 10 11 13 14 12 12 12 14 16 17 17 17 15 14 13 13 13 13 13 14 14 14 14 15 15 16 16 17 17 19 20 22 25 26 26 28 30 29 28 28 31 32 30 24 20 21 21 20 18 17 17 16 16 19 20 20 21
21 20 19 19 18 15 14 14 16 17 17 16 16 15 14 15 15 14 13 13 12 12 12 12 13 14 13 11 11 12 13 14 13 13 14 15 15 15 14 12 11 11 12 13 13 13 13 14 14 14 15 17 17 18 19 20 22 24 24 25 27 27 27 29 32 33 31 31 32 32 26 20 20 22 22 21 21 19 17 17 18 19 19 20 21
22 22 22 21 19 17 15 15 15 14 16 17 17 17 17 17 18 17 15 13 11 10 10 11 13 14 15 14 13 11 10 10 11 11 13 14 13 11 10 9 10 11 12 13 14 14 15 16 16 16 16 18 20 21 22 24 26 27 27 28 29 30 30 31 33 35 32 29 26 25 23 21 20 21 21 20 19 18 16 17 18 19 19 19 18
23 23 23 22 22 20 20 21 19 15 14 16 17 18 18 19 19 18 17 16 15 13 12 12 15 17 18 18 16 14 11 10 9 9 12 14 14 12 11 11 11 11 12 14 15 16 16 17 17 17 16 17 20 22 22 24 27 29 29 31 30 30 30 30 30 30 26 22 20 21 24 23 21 20 20 18 15 14 14 16 17 17 17 16 15
26 26 25 24 24 23 22 23 24 20 16 15 16 17 19 19 19 18 18 18 19 18 17 17 18 19 19 18 16 15 13 11 10 9 11 14 14 12 12 12 11 12 14 14 14 15 16 16 17 17 17 16 19 22 25 26 29 29 30 31 30 28 28 26 24 23 21 19 18 20 23 23 21 20 19 18 17 16 17 18 16 15 16 15 15
28 29 29 28 28 26 24 23 24 23 20 18 18 17 18 20 20 19 19 19 20 20 20 19 19 19 19 18 16 14 12 11 11 11 12 14 14 13 13 13 12 12 14 15 15 15 16 17 18 19 20 19 21 25 27 27 27 27 27 27 25 24 23 22 21 20 18 16 15 18 21 21 20 20 20 21 21 21 21 19 15 14 17 17 16
27 29 30 30 30 29 28 26 24 24 23 22 20 19 18 20 20 20 20 20 21 21 20 20 19 18 19 18 15 14 13 14 14 14 14 14 14 14 15 15 15 14 14 16 17 17 17 18 20 21 22 23 24 24 24 23 22 21 20 20 19 19 19 20 20 19 17 16 16 17 18 19 20 22 23 23 23 24 22 18 13 15 18 18 18
24 26 27 28 30 29 29 28 28 27 24 21 20 19 19 21 20 19 19 19 19 20 19 19 19 18 18 17 15 15 16 18 18 17 16 15 15 17 16 16 17 16 16 17 17 17 18 19 21 21 21 22 22 21 19 16 14 15 16 17 18 18 20 21 21 21 21 19 16 16 18 21 22 24 26 26 25 25 23 18 15 16 17 17 19
23 24 24 26 28 28 28 29 29 28 26 23 22 21 21 21 20 19 19 18 18 19 18 17 17 17 17 16 16 16 17 19 20 19 18 17 17 17 17 17 17 16 16 18 18 18 19 20 20 19 19 19 18 16 14 11 11 15 17 18 19 19 20 21 20 22 23 19 15 18 22 24 25 25 27 29 28 25 21 19 18 18 18 18 19
22 22 23 27 29 28 29 30 29 28 27 25 24 22 21 21 20 18 17 17 17 18 17 16 16 17 18 17 17 18 18 19 20 19 19 19 18 17 17 17 16 15 16 19 19 19 19 19 18 17 16 16 15 14 13 12 14 15 14 15 18 18 19 20 20 22 24 22 20 22 25 26 27 27 27 28 30 27 22 20 21 21 20 18 16
Wind_Direction
113 116 113 107 101 96 94 90 83 71 68 65 62 63 67 68 71 82 90 94 105 98 87 92 85 71 66 74 73 72 73 67 77 63 351 32 37 36 45 45 49 54 55 59 61 63 63 61 56 51 45 38 33 29 24 19 14 7 1 356 353 352 350 347 345 345 345 344 344 344 342 338 339 342 341 336 335 334 329 326 324 320 316 313 310
116 116 107 103 101 90 84 88 90 85 93 100 89 74 67 72 81 86 88 95 112 110 93 88 83 77 77 82 67 53 64 68 76 66 17 33 46 43 46 53 54 54 54 53 52 51 51 50 46 39 32 26 21 18 15 11 6 1 357 354 353 353 352 351 351 350 348 348 348 348 346 343 346 350 345 337 334 331 329 329 326 321 317 313 309
118 113 105 98 98 100 102 109 117 118 117 102 92 86 86 92 92 91 97 95 93 98 97 90 82 84 90 91 77 58 60 77 97 80 33 30 49 47 46 50 53 53 48 42 39 41 42 40 36 29 23 20 16 13 10 8 4 1 359 359 359 1 1 360 358 358 358 359 357 355 353 351 356 357 346 338 337 336 336 336 332 330 327 323 319
116 115 115 111 114 122 123 120 114 108 97 91 88 85 90 99 97 95 93 81 70 97 104 95 85 92 97 91 77 72 68 79 97 74 34 45 45 41 40 38 40 40 34 33 33 34 36 34 31 26 21 17 14 12 10 9 8 7 7 8 12 12 11 10 8 8 7 8 4 2 0 359 4 1 349 345 348 349 347 343 341 339 336 333 330
123 124 121 125 130 129 123 112 105 98 89 91 93 85 86 96 98 100 97 84 70 89 98 93 94 97 96 94 81 79 85 87 84 55 53 54 34 30 30 19 19 23 24 33 36 36 36 33 30 25 21 19 15 15 16 18 17 18 21 23 24 22 20 19 16 15 14 13 11 8 8 7 8 6 1 2 4 3 358 352 349 345 342 338 334
124 120 118 122 116 116 114 107 103 101 93 89 93 97 102 105 103 107 105 97 77 75 93 97 98 109 104 98 92 78 83 92 87 78 79 54 19 38 34 18 26 33 40 44 39 39 38 34 31 27 22 20 21 25 28 31 33 34 35 35 34 31 29 27 24 23 21 18 17 15 14 15 15 16 17 19 18 14 7 2 357 352 348 343 339
116 105 101 103 101 106 107 104 102 99 92 84 87 96 102 103 108 110 101 103 101 78 90 98 112 124 113 95 95 100 83 83 92 83 85 73 42 51 53 48 37 34 45 43 31 34 37 30 29 30 26 25 30 37 41 45 45 44 44 42 40 37 33 31 29 27 26 24 22 21 20 20 22 23 24 22 20 15 10 5 2 358 353 347 344
123 111 99 93 95 97 99 108 104 96 91 86 82 90 100 103 111 107 99 117 124 103 86 98 114 115 113 101 92 106 86 65 107 115 101 95 39 32 41 50 42 38 52 39 22 26 38 29 28 33 29 29 34 40 44 45 45 44 43 40 37 34 31 28 26 25 25 25 25 24 23 22 23 21 20 17 14 11 6 3 2 359 354 349 347
130 122 111 106 108 101 108 115 107 101 95 91 85 88 99 106 114 102 95 111 108 99 110 107 115 111 115 109 69 82 111 91 118 128 80 79 72 30 32 50 52 51 59 37 18 18 27 27 31 37 28 28 34 37 40 40 39 38 36 34 31 28 26 22 21 21 20 21 22 23 22 20 18 16 14 13 11 8 5 1 0 359 353 349 350
133 130 130 135 139 129 125 111 109 112 97 89 81 77 88 102 112 96 88 87 65 66 139 116 108 114 115 125 85 76 121 103 81 65 52 61 91 83 39 49 55 48 46 38 23 16 17 21 27 38 32 32 40 41 43 42 37 35 33 30 27 23 21 18 17 17 16 16 16 17 18 15 12 10 9 9 8 8 6 3 1 359 354 351 352
142 142 143 148 147 133 125 111 110 112 98 90 76 66 85 98 101 93 88 80 59 59 94 74 84 100 93 115 117 96 92 92 71 73 77 41 71 89 41 42 54 46 46 55 40 19 15 17 17 34 41 33 43 48 47 45 38 33 30 27 24 21 18 16 15 14 13 12 12 12 12 11 8 5 3 3 4 4 5 3 2 1 355 353 354
150 152 146 144 141 130 128 123 120 122 116 109 94 78 91 101 100 94 84 73 71 82 73 68 102 100 89 95 106 93 83 97 79 82 109 52 59 81 48 44 70 54 47 67 60 8 360 8 9 21 36 24 34 46 43 44 38 30 27 22 18 16 13 14 13 13 12 10 9 9 7 6 5 2 360 360 1 2 3 3 3 2 357 354 355
151 152 145 137 133 134 140 135 132 134 119 102 102 100 104 106 105 97 86 75 75 100 116 123 126 115 111 108 103 87 76 107 124 112 112 63 64 80 50 53 74 12 32 53 60 20 355 12 15 16 32 27 26 30 30 39 37 26 22 17 13 10 6 7 9 10 10 9 8 7 6 4 3 2 359 358 359 1 2 2 3 2 358 355 355
148 144 144 138 133 139 146 136 131 136 123 107 115 128 114 95 100 106 106 104 82 106 150 136 114 125 131 123 115 96 85 124 139 143 143 108 93 72 49 73 68 347 24 47 43 23 8 19 25 26 34 31 31 27 20 29 28 17 13 11 9 4 360 359 1 5 6 6 6 6 6 5 4 3 0 359 359 1 2 2 2 2 359 355 356
150 147 147 146 142 139 143 138 133 138 135 129 124 122 107 79 98 114 115 119 108 135 165 120 102 134 146 125 115 102 102 90 88 122 132 116 108 81 69 88 42 18 39 35 352 1 12 11 14 24 25 20 27 21 14 20 14 5 6 8 6 360 355 353 355 359 2 2 4 5 7 6 6 5 3 2 1 2 2 2 1 1 360 357 356
150 147 152 157 152 144 143 140 139 138 126 116 115 116 111 94 98 107 112 115 106 110 157 117 118 139 145 130 126 117 109 71 82 123 118 90 100 115 99 60 20 39 50 4 328 349 357 357 1 9 10 10 12 8 14 19 360 351 2 6 2 356 351 348 350 355 359 1 3 6 9 8 8 7 7 5 4 4 3 2 1 0 360 358 358
158 151 168 176 157 154 152 139 137 138 129 118 110 103 100 109 111 100 101 109 109 113 108 99 132 136 124 126 126 123 117 78 77 124 116 89 89 129 116 73 41 61 105 85 356 348 345 349 351 354 8 9 2 359 8 11 345 343 0 2 355 352 348 345 348 354 359 1 3 7 10 9 8 7 6 5 4 3 3 3 2 1 0 359 359
172 165 179 185 164 157 151 140 138 135 134 122 104 99 106 125 132 118 105 114 128 127 118 95 105 109 107 103 90 98 117 122 139 133 125 108 90 97 144 156 230 9 61 96 11 345 333 329 335 349 3 360 355 355 357 360 351 349 359 357 350 347 346 346 350 356 1 3 3 7 8 7 5 3 2 0 359 358 359 360 1 2 2 0 0
175 178 181 179 171 157 149 152 148 137 140 133 114 138 193 153 134 157 149 143 142 136 130 121 108 101 113 101 74 80 94 118 170 161 166 199 166 146 49 335 266 360 14 21 3 334 322 320 335 343 336 333 348 355 352 356 359 357 357 353 347 344 345 351 356 358 1 3 4 3 1 1 360 358 357 356 354 353 354 355 356 358 0 1 1
177 190 188 178 175 160 156 161 154 148 148 148 133 141 160 138 155 182 158 145 156 142 127 127 117 105 153 155 128 138 143 109 176 174 170 188 181 170 148 287 240 314 317 327 7 337 332 324 313 326 321 323 338 343 343 348 353 356 355 347 343 342 346 355 359 359 360 2 2 1 358 356 355 355 355 354 352 351 351 351 352 353 355 358 359
191 191 187 185 181 170 169 166 162 166 149 152 180 141 163 218 199 172 153 161 173 154 132 110 96 97 162 172 155 166 176 161 216 265 235 180 177 198 218 247 249 210 206 200 282 310 315 308 315 351 341 327 330 331 336 345 346 350 351 343 341 342 345 354 358 358 358 358 358 358 356 354 353 354 353 352 351 350 350 350 350 351 351 353 355
201 188 185 192 186 180 182 168 163 173 155 155 171 209 218 207 184 186 176 177 181 167 160 118 90 126 122 147 169 162 151 153 218 252 254 248 216 230 247 261 266 298 309 244 256 288 298 307 332 354 325 325 330 323 328 335 334 339 346 343 341 342 343 348 353 356 356 355 355 355 354 353 352 352 350 350 349 347 348 349 350 350 349 350 351
195 190 192 195 193 191 187 171 168 189 194 178 171 185 206 177 172 214 209 183 191 182 175 154 135 137 105 5 274 190 157 139 198 248 273 284 268 260 294 321 292 286 293 291 275 297 297 299 327 326 303 313 318 316 324 331 330 338 346 344 342 341 339 342 349 355 355 355 356 357 357 356 355 354 351 349 347 346 347 348 350 350 349 348 348
186 190 191 188 199 197 189 186 190 203 199 187 184 188 200 190 181 213 215 189 199 198 183 157 155 167 185 265 279 225 195 174 207 218 237 283 270 258 256 303 302 284 279 292 294 288 282 283 307 306 287 287 297 315 328 332 335 340 341 339 340 338 334 337 346 352 355 356 360 2 2 1 0 359 357 354 351 349 349 351 351 351 351 349 348
184 195 194 190 212 210 204 213 210 211 202 195 201 194 194 193 185 209 215 196 206 207 187 163 171 188 196 279 313 273 219 284 247 214 207 243 242 235 222 246 282 285 289 296 292 292 296 291 295 297 288 291 311 331 335 335 342 344 339 335 335 334 329 332 342 348 351 355 359 0 0 0 360 359 358 357 356 354 353 354 353 352 352 351 350
187 195 199 201 219 216 217 229 211 207 206 201 206 195 197 204 198 203 208 208 228 212 178 146 171 195 205 244 306 316 276 294 269 237 229 242 227 217 263 262 277 281 290 298 298 301 296 283 285 303 311 317 332 342 342 345 350 348 345 336 328 328 327 329 338 342 347 352 354 354 353 354 356 356 355 356 357 357 356 355 354 352 352 352 352
185 182 195 208 220 218 225 238 211 201 208 208 208 201 205 215 213 207 207 209 228 218 189 176 192 203 224 223 197 307 296 309 296 271 250 193 153 108 270 253 270 270 270 286 287 278 279 283 298 315 323 331 335 340 346 348 341 335 339 331 323 329 330 329 334 335 339 347 348 346 346 348 352 353 353 354 355 357 357 355 353 352 352 353 354
191 188 204 215 223 231 232 234 216 204 216 215 211 215 217 217 214 209 204 197 221 231 207 190 190 183 196 235 184 185 241 295 313 283 275 78 41 317 279 275 291 282 265 271 273 269 278 293 312 317 318 326 331 338 344 338 324 325 334 324 321 330 331 330 336 333 332 341 343 341 340 344 350 351 351 354 356 357 356 354 352 351 352 353 354
202 199 206 209 214 223 216 217 223 220 229 223 213 220 225 224 227 217 200 198 221 237 220 194 187 184 196 228 204 189 219 214 214 248 271 308 229 239 256 272 290 284 272 277 279 279 282 287 305 317 320 325 329 334 336 333 332 340 339 320 319 330 331 334 343 338 332 338 339 336 339 345 348 348 349 354 359 358 354 353 351 350 351 353 354
212 204 211 210 208 211 207 212 224 226 229 228 224 225 223 226 238 238 219 216 227 239 231 204 187 202 216 214 209 204 221 233 230 236 238 225 243 244 253 272 293 290 276 282 291 292 295 293 297 313 320 324 327 330 333 329 330 340 335 315 318 330 328 334 346 343 336 336 335 336 342 346 345 344 347 353 359 358 355 353 352 351 352 353 355
214 209 214 213 214 218 211 212 221 227 232 234 231 229 228 231 235 243 240 232 234 239 236 220 200 218 226 218 219 215 209 234 249 244 246 259 259 254 244 253 294 307 288 286 300 303 305 302 295 299 315 322 324 329 331 321 321 330 322 310 316 325 327 336 342 337 332 332 334 341 346 344 341 342 346 351 356 357 355 355 354 352 353 354 356
222 223 214 204 220 235 220 215 226 229 229 237 241 230 229 234 226 235 252 248 249 255 245 232 222 231 238 228 225 221 213 219 217 225 255 256 251 260 256 259 289 301 288 285 298 306 306 305 310 315 315 316 317 320 320 314 316 318 311 309 317 324 333 338 332 328 332 335 338 345 346 342 340 342 345 347 351 355 356 357 356 353 352 354 356
221 231 225 208 220 234 221 224 241 239 221 230 248 242 236 240 225 230 255 257 254 259 251 240 228 227 240 243 237 227 226 235 215 211 247 256 260 274 268 262 275 283 284 286 294 308 316 314 318 323 327 324 315 312 310 310 314 313 310 315 320 325 331 328 323 329 337 338 340 344 343 340 340 343 343 343 347 351 353 357 358 354 351 352 355
217 226 233 219 219 227 222 235 251 246 228 235 248 248 242 247 237 233 251 259 259 259 254 252 243 235 241 248 249 239 236 264 256 232 245 245 249 268 265 258 276 289 296 298 303 311 315 314 314 315 321 317 303 301 308 314 316 313 313 318 319 323 326 322 325 334 334 334 342 341 336 336 342 346 343 339 342 346 349 354 357 357 354 350 352
224 227 230 222 227 234 224 231 246 244 240 247 252 248 244 249 250 245 245 251 265 271 262 257 259 254 255 257 255 249 244 254 257 254 253 244 245 268 276 264 269 281 294 302 308 311 310 313 317 317 320 318 314 321 329 323 314 314 319 321 318 325 332 330 330 333 331 336 343 335 330 336 345 345 337 333 337 342 345 348 352 358 1 357 353
228 230 232 225 230 240 231 226 236 238 239 248 252 248 247 248 248 249 248 246 253 262 255 253 259 262 268 272 266 258 248 246 248 251 257 251 243 251 257 261 264 266 275 287 293 300 304 308 316 324 329 332 337 343 335 320 314 318 324 325 324 331 337 332 328 329 334 342 339 329 331 343 344 336 330 329 333 337 339 342 345 350 359 0 356
231 235 245 240 228 239 243 238 239 240 240 247 251 248 248 251 252 252 251 249 249 252 253 249 245 247 253 255 255 255 251 254 258 259 259 251 237 244 257 268 272 271 268 275 283 295 304 308 316 326 330 332 334 330 320 314 317 324 331 334 334 332 330 327 326 328 334 336 329 328 338 345 336 327 325 326 330 333 334 339 340 340 350 358 357
236 235 245 246 233 238 248 247 245 246 247 249 249 247 244 246 255 257 255 257 258 256 259 258 252 258 263 258 257 255 251 257 259 255 267 271 265 271 276 273 281 285 280 283 294 303 306 306 311 317 318 319 319 318 319 321 324 331 336 333 331 329 327 325 323 325 328 327 325 332 340 335 324 324 327 328 333 337 338 340 337 333 341 351 354
239 237 238 243 242 245 251 254 250 246 249 252 251 249 245 240 249 256 256 258 259 258 265 267 261 264 269 270 274 271 261 262 260 251 261 273 271 263 265 269 278 281 280 288 296 298 298 299 304 307 307 310 317 326 336 334 329 331 332 329 329 332 328 318 316 321 325 326 329 334 333 323 324 330 333 338 349 348 343 340 333 330 337 343 347
242 242 239 242 247 247 248 256 258 246 244 252 252 251 250 243 242 249 254 256 255 257 261 258 258 261 261 265 270 269 264 265 265 258 248 251 258 258 258 262 265 274 286 295 297 298 301 303 307 309 310 317 326 333 336 331 326 328 328 327 327 323 315 310 313 320 324 328 332 332 327 326 331 337 341 349 359 351 342 336 329 331 337 338 342
241 244 244 244 248 250 247 255 262 253 245 250 254 255 255 253 247 243 251 258 256 254 255 256 263 266 260 262 264 261 264 267 268 269 260 259 270 278 281 283 284 289 297 302 305 309 311 310 310 312 316 320 323 323 323 322 321 318 314 311 309 308 308 311 317 322 325 329 330 327 327 332 337 343 350 356 358 348 338 332 330 333 334 335 340
230 235 239 238 242 250 251 254 261 259 251 250 254 259 261 262 261 249 245 254 257 257 257 256 262 265 263 267 269 266 269 271 272 273 269 271 279 283 287 291 293 295 301 307 314 317 314 311 309 311 312 309 306 309 314 315 310 305 304 305 307 309 313 316 319 323 326 327 327 326 331 341 346 348 352 356 358 352 340 330 331 334 333 333 338
229 230 233 234 238 245 250 256 260 257 251 245 245 251 255 255 257 255 252 256 260 263 262 260 267 275 278 277 273 279 283 275 272 274 271 272 279 282 286 292 296 301 307 311 313 312 308 304 299 298 298 297 300 306 310 310 307 308 310 311 312 313 315 315 315 319 325 327 326 327 333 347 352 348 348 352 353 350 342 333 333 334 333 332 335
239 236 235 235 238 241 243 248 252 251 249 247 242 242 246 250 254 257 258 257 261 267 274 282 284 278 272 265 260 274 291 276 262 265 270 274 280 283 290 298 303 307 306 303 303 303 301 297 292 292 294 298 301 304 307 308 309 311 311 312 314 313 311 310 310 315 324 330 330 330 334 345 350 344 340 343 342 340 339 332 328 328 329 330 332
246 245 242 239 239 241 240 241 246 250 253 255 251 244 246 252 255 257 258 259 263 266 267 277 279 269 266 268 264 267 285 287 269 257 264 273 277 282 292 298 301 302 296 294 300 305 305 300 294 293 296 301 303 303 305 308 310 312 312 312 315 314 311 312 313 317 329 340 342 334 329 335 341 335 331 332 330 328 328 324 324 329 334 334 332
248 247 246 243 241 241 241 241 243 246 251 257 256 249 248 250 251 254 257 260 266 266 259 261 268 270 274 282 281 276 281 285 275 263 265 271 273 280 292 297 300 301 296 297 302 305 304 299 294 294 299 302 302 300 302 306 308 311 312 311 313 314 316 319 320 324 338 350 345 331 325 329 334 331 328 329 327 325 323 324 331 339 338 334 331
248 245 244 244 244 242 242 242 241 242 247 251 252 250 249 249 250 252 256 260 264 265 262 261 265 272 278 284 287 282 278 275 273 270 269 270 271 279 287 291 293 295 296 299 302 302 301 299 295 294 295 293 291 295 300 304 306 309 309 308 312 318 322 323 323 329 341 343 333 325 322 324 328 328 325 325 326 327 328 332 340 336 327 324 324
245 243 243 244 247 245 243 242 242 243 246 248 249 250 250 250 250 252 256 261 263 263 263 263 264 269 273 274 272 266 263 266 271 273 270 266 267 274 280 283 283 284 288 295 300 300 297 294 291 289 290 290 291 297 304 307 310 313 314 315 322 329 326 323 324 329 332 328 324 322 321 321 323 322 320 322 326 328 332 338 337 323 318 320 322
243 241 241 242 244 243 241 240 240 240 242 244 247 250 250 250 250 252 257 262 264 263 263 263 265 267 267 267 265 264 264 264 265 267 267 264 266 271 275 278 281 285 288 289 292 293 292 293 293 292 294 298 302 306 309 313 325 332 329 329 334 336 329 325 326 327 329 332 330 323 319 319 319 317 317 320 323 325 331 336 332 323 322 324 324
246 242 241 242 241 238 236 237 237 236 238 242 246 249 251 250 251 254 258 262 264 262 260 260 263 264 261 261 263 266 267 265 263 265 267 266 268 270 274 278 283 285 286 285 286 286 287 292 295 297 302 307 310 313 314 327 347 342 334 334 337 335 331 330 329 329 332 336 332 322 320 319 318 318 319 321 321 324 330 332 330 330 330 326 326
248 248 246 241 235 231 230 231 231 233 237 241 242 246 249 251 252 254 256 259 259 258 257 256 257 259 259 259 262 264 266 267 267 268 269 269 270 270 273 278 279 277 279 283 285 285 288 292 295 300 306 310 316 325 333 345 348 338 330 331 333 334 334 334 332 329 326 326 325 323 323 322 320 322 324 324 323 323 326 326 326 329 331 330 332